COSMOS 2251 DEB, 33975

Orbit data source: Space-Track

COSMOS 2251 DEB, 33975 is space debris in LEO originally from a launch on Wed, 16 Jun 1993 UTC launched from the Plesetsk Missile And Space Complex (PKMTR). The debris from Iridium 33, an American commercial communications satellite, has been tracked extensively since its accidental collision with the defunct Russian satellite Cosmos 2251 in 2009. This event, occurring at high speed in low Earth orbit (LEO), generated thousands of pieces of space debris, significantly increasing the risk of further collisions. The Iridium 33 debris cloud has impacted space traffic management and orbital debris mitigation strategies, making it a subject of ongoing study in space situational awareness.

Loading next visibility...
Identifier
33975, 1993-036FJ
Orbit
LEO
Country
Flag of CISCIS
Related business
Manufacturer
Unknown
Mission
Spacecraft
Bus & Motor
Unknown
Mass
Unknown
Launch date (UTC)
1993-06-16 (33 years ago)
Launch vehicle
Unknown
Launch site
Plesetsk Missile And Space Complex (PKMTR)
Object type
Payload
Rocket body
Debris
Shape & HBR
Unknown shape, 0.1 m
Radar Cross Section
Medium (>0.1 m² and <1 m²)

Expand to show TLE details & history
Last TLE update: 20 hours ago

TLE from 20 hours ago
0 COSMOS 2251 DEB
1 33975U 93036FJ  26235.33978954  .00000369  00000-0  22504-3 0  9998
2 33975  73.8030 358.5213 0189821  87.4095 274.8750 14.00849638893803
Epoch: 2026-08-23T08:09Z
TLE epoch observation values (Epoch: 2026-08-23T08:09:17.816Z)
Latitude
-0.00007°
Longitude
-95.44021°
Altitude
884.289 km
Speed
7.415 km/s
True Right ascension
23h 54m 05s
True Declination
0° 00' 00"
Sunlit
Object was in full shadow at epoch
Visualization orbit readout
Latitude
Unknown
Longitude
Unknown
Altitude
Unknown
Speed
Unknown
Apparent Right ascension
Unknown
Apparent Declination
Unknown
Sunlit
N/A
Visualization observer readout
Local Sidereal Time
19:31:26
Azimuth
Unknown
Elevation
Unknown
Doppler factor
Unknown
Orbital elements
Apogee altitude
1,026.473 km
Perigee altitude
750.599 km
Semi-major axis
7,266.673 km
Eccentricity
0.01898
Inclination
73.803°
RAAN
358.5213°
Arg. of periapsis
87.4095°
True anomaly
272.70382°
Mean anomaly
274.875°
Eccentric anomaly
273.78978°
Mean motion
3.5038 °/min
Orbital period
102.75 mins
BSTAR
0.00022504

Documentation

Showing up to 5 results
|